Regional Weather Roundup
Issued by NWS Newport/Morehead, NC

Current Version | Previous Version | Graphics & Text | Print | Product List | Glossary On
Versions: 1 2 3 4 5 6 7 8 9 10 11 12 13 14 15 16 17 18 19 20 21 22 23 24 25 26 27 28 29 30 31 32 33 34 35 36 37 38 39 40 41 42 43 44 45 46 47 48 49 50
000 ASUS42 KMHX 180526 RWRMHX WEATHER ROUNDUP FOR EASTERN NORTH CAROLINA NATIONAL WEATHER SERVICE NEWPORT/MOREHEAD CITY NC 100 AM EDT WED OCT 18 2017 NOTE: "FAIR" INDICATES FEW OR NO CLOUDS BELOW 12,000 FEET WITH NO SIGNIFICANT WEATHER AND/OR OBSTRUCTIONS TO VISIBILITY NCZ015>017-031-032-045>047-102-103-180600- NORTH COAST CITY SKY/WX TMP DP RH WIND PRES REMARKS EDENTON CLEAR 47 44 88 CALM 30.33S ELIZABETH CITY PTCLDY 53 48 83 N12 30.32F KITTY HAWK CLEAR 57 46 66 CALM 30.29R MANTEO CLEAR N/A N/A N/A NE8 30.30S $$ NCZ045>047-081-094-103-104-180600- CENTRAL COAST CITY SKY/WX TMP DP RH WIND PRES REMARKS FRISCO CLEAR 61 52 72 NE8G18 30.27S $$ NCZ095-097-098-100-101-180600- SOUTHERN COAST CITY SKY/WX TMP DP RH WIND PRES REMARKS BEAUFORT CLEAR 53 49 86 N8 30.29S CEDAR ISLAND NOT AVBL JACKSONVILLE CLEAR 50 45 83 N8 30.30F PINEY ISLAND N/A N/A N/A N/A N12 30.29S WILMINGTON CLEAR 48 44 86 NE6 30.29F $$ NCZ011>013-027>030-043-044-078>080-089-090>093-098-180600- COASTAL PLAIN CITY SKY/WX TMP DP RH WIND PRES REMARKS AHOSKIE CLEAR 39 39 100 CALM 30.34F CLINTON CLEAR 47 45 90 CALM 30.32S ELIZABETHTOWN NOT AVBL GOLDSBORO CLEAR 47 42 83 CALM 30.30F GREENVILLE CLEAR 43 41 93 CALM 30.33F HAVELOCK CLEAR 54 47 77 N10 30.31S KENANSVILLE CLEAR 41 41 100 CALM 30.32S FOG KINSTON CLEAR 42 40 95 N3 30.32F NEW BERN CLEAR 52 45 77 N8 30.32F RICHLANDS CLEAR 44 43 96 CALM 30.31F ROCKY MOUNT CLEAR 42 42 100 CALM 30.33F WASHINGTON CLEAR 46 43 88 N5 30.32F WHITEVILLE CLEAR 47 45 92 CALM 30.30S $$ AMZ130-135-150-152-154-156-158-170-250-252-270-ANZ085-086-088-633-658-670-180600- MARINE OBSERVATIONS STATION/POSITION TIME TEMP WIND PRES WAVE SWELL AIR SEA DIR/SP/G HT/PER HT/PER (UTC) (F) (DEG/KT/KT) (MB) (FT/S) (FT/S) CHESAPEAKE LIGHT NOT AVBL 64 E VA BEACH 0450 60 67 20/ 10/ 12 1026.4 6/ 8 5/ 8 DUCK 0500 60 68 20/ 11/ 15 1025.8 2 E DUCK 0500 70 N/A 4/ 6 2/11 OREGON INLET 0500 60 65 20/ 9/ 12 1025.5 13E OREGON INLT 0448 71 N/A 6/11 5/11 HATTERAS CG 0500 62 68 30/ 11/ 18 1024.8 DIAMOND BUOY 0450 66 81 20/ 19/ 25 1023.8 7/ 9 5/ 9 CAPE LOOKOUT 0500 58 360/ 14/ 16 1024.9 BEAUFORT LAB 0500 56 70 10/ 9/ 12 1025.8 30 SE NEW RVR IN 0408 64 40/ 17/ 23 1024.6 30 SE NEW RVR IN NOT AVBL 27 SE WRIGHTSVLE 0408 64 77 60/ 17/ 25 1024.6 5 SE WRIGHTSVLE 0408 63 75 50/ 17/ 31 1025.4 225 S CAPE HAT 0450 74 79 50/ 19/ 23 1019.3 11/10 7/10 41 SE CHARLESTON 0510 69 80 40/ 21/ 29 1022.4 $$

USA.gov is the U.S. government's official web portal to all federal, state and local government web resources and services.